QPF
0.00 0.00 0.00 0.00 0.00 0.00 0.00 0.00 0.00 0.00 0.00 0.00 0.00 0.00 0.00 0.00 0.00 0.00 0.00 0.00 0.00 0.00 0.01 0.01 0.01 0.01 0.01 0.01 0.02 0.02 0.02 0.02 0.02 0.03 0.03 0.03 0.03 0.04
0.00 0.00 0.00 0.00 0.00 0.00 0.00 0.00 0.00 0.00 0.00 0.00 0.00 0.00 0.00 0.00 0.00 0.00 0.00 0.00 0.00 0.00 0.00 0.01 0.01 0.01 0.01 0.01 0.01 0.02 0.02 0.03 0.03 0.04 0.05 0.05 0.06 0.06
0.00 0.00 0.00 0.00 0.00 0.00 0.00 0.00 0.00 0.00 0.00 0.00 0.00 0.00 0.00 0.00 0.00 0.00 0.00 0.00 0.00 0.00 0.01 0.00 0.00 0.01 0.01 0.01 0.02 0.02 0.03 0.03 0.04 0.05 0.06 0.06 0.07 0.07
0.00 0.00 0.00 0.00 0.00 0.00 0.00 0.00 0.00 0.00 0.00 0.00 0.00 0.00 0.00 0.00 0.00 0.00 0.00 0.00 0.00 0.00 0.00 0.00 0.00 0.01 0.01 0.01 0.02 0.02 0.03 0.04 0.04 0.05 0.05 0.06 0.06 0.07
0.00 0.00 0.00 0.00 0.00 0.00 0.00 0.00 0.00 0.00 0.00 0.00 0.00 0.00 0.00 0.00 0.00 0.00 0.00 0.00 0.00 0.00 0.00 0.00 0.00 0.00 0.01 0.01 0.02 0.02 0.02 0.02 0.03 0.03 0.03 0.03 0.04 0.04
0.00 0.00 0.00 0.00 0.00 0.00 0.00 0.00 0.00 0.00 0.00 0.01 0.01 0.01 0.01 0.00 0.00 0.00 0.00 0.00 0.00 0.00 0.00 0.00 0.00 0.00 0.00 0.00 0.01 0.01 0.01 0.01 0.01 0.02 0.02 0.02 0.02 0.02
0.00 0.00 0.00 0.00 0.00 0.00 0.00 0.00 0.00 0.01 0.02 0.03 0.03 0.01 0.00 0.00 0.00 0.00 0.00 0.00 0.00 0.00 0.00 0.00 0.00 0.00 0.00 0.00 0.00 0.00 0.00 0.00 0.01 0.02 0.02 0.03 0.03 0.03
0.00 0.00 0.00 0.00 0.00 0.00 0.00 0.00 0.01 0.03 0.04 0.03 0.02 0.00 0.00 0.00 0.00 0.01 0.01 0.01 0.01 0.00 0.00 0.00 0.00 0.00 0.00 0.00 0.00 0.00 0.00 0.01 0.01 0.02 0.03 0.03 0.03 0.04
0.00 0.00 0.00 0.00 0.00 0.00 0.00 0.01 0.02 0.02 0.02 0.01 0.00 0.00 0.00 0.00 0.01 0.02 0.01 0.02 0.01 0.00 0.00 0.00 0.00 0.00 0.00 0.00 0.00 0.00 0.00 0.01 0.01 0.02 0.02 0.03 0.03 0.03
0.00 0.00 0.00 0.00 0.00 0.00 0.01 0.03 0.02 0.01 0.00 0.00 0.00 0.00 0.00 0.01 0.01 0.02 0.01 0.01 0.00 0.00 0.00 0.00 0.00 0.00 0.00 0.00 0.00 0.00 0.00 0.00 0.01 0.01 0.02 0.02 0.02 0.03
0.00 0.00 0.00 0.00 0.00 0.01 0.03 0.02 0.01 0.00 0.00 0.00 0.00 0.00 0.00 0.00 0.00 0.01 0.02 0.02 0.01 0.00 0.00 0.00 0.00 0.00 0.00 0.00 0.00 0.00 0.00 0.00 0.00 0.01 0.01 0.01 0.02 0.02
0.00 0.00 0.00 0.00 0.01 0.02 0.02 0.01 0.00 0.00 0.01 0.00 0.00 0.00 0.00 0.00 0.00 0.00 0.03 0.06 0.04 0.02 0.00 0.01 0.01 0.02 0.03 0.00 0.00 0.00 0.00 0.00 0.00 0.00 0.01 0.01 0.01 0.02
0.00 0.00 0.00 0.00 0.01 0.01 0.01 0.00 0.00 0.01 0.01 0.00 0.00 0.00 0.00 0.00 0.00 0.00 0.01 0.07 0.09 0.05 0.01 0.05 0.05 0.02 0.04 0.02 0.00 0.00 0.00 0.00 0.00 0.00 0.00 0.01 0.02 0.05
0.00 0.00 0.00 0.01 0.01 0.00 0.00 0.00 0.01 0.01 0.00 0.00 0.00 0.00 0.00 0.00 0.00 0.00 0.00 0.01 0.03 0.06 0.03 0.06 0.08 0.05 0.06 0.04 0.01 0.00 0.00 0.00 0.01 0.01 0.01 0.01 0.02 0.04
0.00 0.00 0.00 0.00 0.00 0.00 0.00 0.00 0.00 0.00 0.00 0.00 0.00 0.00 0.00 0.00 0.00 0.00 0.00 0.00 0.00 0.00 0.01 0.02 0.06 0.07 0.08 0.07 0.04 0.01 0.01 0.01 0.00 0.02 0.03 0.04 0.05 0.07
0.00 0.00 0.00 0.00 0.00 0.00 0.00 0.00 0.00 0.00 0.00 0.01 0.00 0.00 0.00 0.00 0.00 0.00 0.00 0.01 0.01 0.00 0.00 0.00 0.02 0.07 0.06 0.03 0.05 0.04 0.03 0.04 0.03 0.05 0.06 0.06 0.08 0.13
0.00 0.00 0.00 0.00 0.00 0.00 0.00 0.00 0.00 0.00 0.00 0.00 0.00 0.00 0.00 0.00 0.00 0.00 0.01 0.01 0.01 0.01 0.00 0.00 0.00 0.01 0.02 0.01 0.01 0.01 0.01 0.03 0.05 0.10 0.12 0.09 0.07 0.13
0.00 0.00 0.00 0.00 0.00 0.00 0.00 0.00 0.00 0.00 0.00 0.01 0.01 0.01 0.01 0.01 0.01 0.00 0.00 0.01 0.01 0.01 0.01 0.00 0.01 0.01 0.00 0.00 0.00 0.01 0.02 0.03 0.06 0.09 0.14 0.16 0.11 0.10
0.00 0.00 0.00 0.00 0.00 0.00 0.00 0.01 0.00 0.00 0.01 0.01 0.01 0.02 0.02 0.02 0.01 0.01 0.01 0.01 0.01 0.01 0.01 0.01 0.02 0.03 0.02 0.01 0.00 0.01 0.05 0.07 0.06 0.08 0.15 0.23 0.25 0.16
0.00 0.00 0.00 0.00 0.00 0.01 0.01 0.01 0.01 0.00 0.01 0.01 0.01 0.02 0.03 0.03 0.02 0.02 0.01 0.02 0.02 0.01 0.01 0.00 0.02 0.04 0.06 0.05 0.03 0.01 0.02 0.11 0.13 0.13 0.12 0.10 0.11 0.12
0.00 0.00 0.00 0.00 0.00 0.01 0.01 0.01 0.01 0.01 0.02 0.02 0.02 0.03 0.03 0.04 0.03 0.02 0.02 0.01 0.01 0.02 0.02 0.01 0.01 0.01 0.02 0.01 0.01 0.00 0.00 0.04 0.12 0.17 0.14 0.07 0.06 0.10
0.00 0.00 0.00 0.00 0.01 0.01 0.01 0.01 0.01 0.01 0.02 0.03 0.03 0.03 0.03 0.04 0.04 0.03 0.02 0.02 0.02 0.02 0.02 0.01 0.00 0.00 0.00 0.00 0.01 0.01 0.01 0.01 0.02 0.04 0.09 0.21 0.31 0.37
0.00 0.00 0.00 0.00 0.01 0.01 0.01 0.01 0.01 0.02 0.03 0.04 0.03 0.03 0.03 0.03 0.03 0.03 0.03 0.03 0.03 0.02 0.01 0.00 0.00 0.00 0.00 0.00 0.00 0.01 0.01 0.01 0.01 0.02 0.05 0.13 0.25 0.30
MSLP
1019.81 1019.79 1019.66 1019.41 1019.04 1018.55 1017.98 1017.37 1016.74 1016.15 1015.62 1015.16 1014.77 1014.45 1014.17 1013.91 1013.63 1013.32 1012.95 1012.54 1012.07 1011.56 1011.02 1010.46 1009.90 1009.34 1008.79 1008.26 1007.74 1007.25 1006.79 1006.37 1005.97 1005.60 1005.26 1004.94 1004.65 1004.36
1019.68 1019.67 1019.56 1019.34 1019.00 1018.53 1017.97 1017.35 1016.69 1016.04 1015.44 1014.89 1014.41 1013.99 1013.62 1013.27 1012.93 1012.56 1012.17 1011.73 1011.25 1010.73 1010.19 1009.63 1009.06 1008.50 1007.96 1007.43 1006.93 1006.45 1006.01 1005.59 1005.20 1004.83 1004.48 1004.13 1003.79 1003.45
1019.42 1019.41 1019.33 1019.14 1018.83 1018.40 1017.87 1017.25 1016.59 1015.91 1015.25 1014.62 1014.05 1013.54 1013.08 1012.64 1012.21 1011.78 1011.33 1010.85 1010.34 1009.79 1009.23 1008.65 1008.07 1007.49 1006.93 1006.40 1005.90 1005.44 1005.01 1004.61 1004.23 1003.87 1003.52 1003.16 1002.79 1002.42
1019.08 1019.06 1018.99 1018.83 1018.56 1018.18 1017.68 1017.09 1016.44 1015.75 1015.05 1014.37 1013.73 1013.13 1012.57 1012.05 1011.54 1011.03 1010.51 1009.98 1009.41 1008.82 1008.21 1007.58 1006.96 1006.35 1005.76 1005.21 1004.70 1004.23 1003.81 1003.42 1003.06 1002.71 1002.37 1002.01 1001.64 1001.25
1018.69 1018.66 1018.59 1018.46 1018.23 1017.89 1017.44 1016.88 1016.25 1015.56 1014.85 1014.13 1013.43 1012.77 1012.14 1011.53 1010.95 1010.37 1009.78 1009.17 1008.54 1007.88 1007.20 1006.51 1005.82 1005.15 1004.50 1003.90 1003.36 1002.87 1002.43 1002.05 1001.70 1001.37 1001.05 1000.72 1000.36 999.99
1018.30 1018.25 1018.18 1018.06 1017.86 1017.55 1017.14 1016.62 1016.01 1015.33 1014.61 1013.88 1013.15 1012.45 1011.76 1011.10 1010.46 1009.81 1009.16 1008.49 1007.78 1007.05 1006.29 1005.51 1004.73 1003.97 1003.25 1002.57 1001.97 1001.43 1000.97 1000.57 1000.22 999.91 999.61 999.30 998.98 998.64
1017.96 1017.88 1017.79 1017.66 1017.47 1017.17 1016.78 1016.29 1015.70 1015.04 1014.33 1013.59 1012.86 1012.13 1011.42 1010.73 1010.05 1009.36 1008.66 1007.93 1007.16 1006.35 1005.51 1004.64 1003.77 1002.91 1002.08 1001.31 1000.62 1000.02 999.50 999.06 998.70 998.38 998.09 997.81 997.53 997.25
1017.67 1017.55 1017.43 1017.27 1017.06 1016.76 1016.37 1015.87 1015.29 1014.65 1013.95 1013.23 1012.50 1011.78 1011.07 1010.37 1009.68 1008.98 1008.25 1007.49 1006.67 1005.80 1004.89 1003.93 1002.96 1002.00 1001.06 1000.19 999.40 998.70 998.11 997.61 997.19 996.85 996.55 996.29 996.04 995.79
1017.43 1017.26 1017.09 1016.89 1016.63 1016.29 1015.87 1015.37 1014.78 1014.14 1013.45 1012.75 1012.05 1011.35 1010.67 1010.00 1009.33 1008.63 1007.91 1007.13 1006.29 1005.38 1004.41 1003.38 1002.33 1001.27 1000.23 999.25 998.35 997.54 996.85 996.25 995.76 995.36 995.02 994.74 994.49 994.27
1017.21 1016.98 1016.75 1016.48 1016.16 1015.77 1015.30 1014.76 1014.16 1013.52 1012.85 1012.17 1011.50 1010.84 1010.20 1009.57 1008.93 1008.27 1007.57 1006.80 1005.96 1005.03 1004.03 1002.96 1001.84 1000.70 999.58 998.49 997.48 996.56 995.74 995.04 994.43 993.93 993.52 993.17 992.89 992.65
1016.98 1016.70 1016.39 1016.05 1015.65 1015.19 1014.67 1014.09 1013.46 1012.81 1012.16 1011.50 1010.87 1010.26 1009.67 1009.08 1008.49 1007.87 1007.20 1006.45 1005.62 1004.70 1003.69 1002.59 1001.44 1000.25 999.05 997.88 996.76 995.73 994.78 993.94 993.21 992.57 992.03 991.58 991.21 990.92
1016.73 1016.38 1016.01 1015.58 1015.11 1014.58 1014.00 1013.39 1012.74 1012.09 1011.45 1010.82 1010.22 1009.65 1009.10 1008.56 1008.00 1007.41 1006.77 1006.05 1005.23 1004.32 1003.31 1002.21 1001.04 999.82 998.58 997.34 996.14 995.00 993.93 992.95 992.06 991.27 990.57 989.98 989.48 989.08
1016.44 1016.04 1015.59 1015.10 1014.57 1013.98 1013.36 1012.72 1012.07 1011.42 1010.79 1010.19 1009.62 1009.08 1008.55 1008.03 1007.49 1006.92 1006.28 1005.57 1004.76 1003.86 1002.85 1001.76 1000.59 999.36 998.10 996.82 995.56 994.33 993.14 992.02 990.98 990.02 989.15 988.39 987.74 987.20
1016.12 1015.67 1015.18 1014.64 1014.06 1013.44 1012.80 1012.15 1011.50 1010.87 1010.25 1009.67 1009.12 1008.59 1008.07 1007.54 1006.99 1006.40 1005.74 1005.01 1004.19 1003.28 1002.29 1001.20 1000.04 998.82 997.56 996.27 994.97 993.67 992.40 991.16 989.97 988.85 987.81 986.86 986.03 985.34
1015.79 1015.31 1014.79 1014.23 1013.63 1013.01 1012.37 1011.73 1011.10 1010.48 1009.89 1009.32 1008.77 1008.22 1007.68 1007.11 1006.51 1005.87 1005.17 1004.39 1003.54 1002.61 1001.61 1000.53 999.39 998.19 996.94 995.66 994.34 993.01 991.67 990.34 989.04 987.77 986.57 985.46 984.46 983.61
1015.48 1014.99 1014.46 1013.89 1013.31 1012.70 1012.09 1011.47 1010.87 1010.28 1009.70 1009.13 1008.56 1007.98 1007.38 1006.75 1006.08 1005.35 1004.57 1003.73 1002.82 1001.86 1000.84 999.77 998.64 997.47 996.26 995.00 993.69 992.36 990.98 989.59 988.20 986.82 985.49 984.24 983.10 982.12
1015.22 1014.73 1014.21 1013.67 1013.10 1012.53 1011.95 1011.37 1010.80 1010.22 1009.65 1009.06 1008.45 1007.82 1007.15 1006.43 1005.66 1004.84 1003.96 1003.04 1002.07 1001.06 1000.02 998.95 997.85 996.71 995.53 994.32 993.05 991.72 990.35 988.94 987.49 986.05 984.63 983.27 982.03 980.93
1015.03 1014.55 1014.05 1013.54 1013.01 1012.47 1011.93 1011.38 1010.82 1010.25 1009.66 1009.04 1008.38 1007.68 1006.92 1006.10 1005.23 1004.31 1003.34 1002.34 1001.31 1000.27 999.21 998.14 997.06 995.96 994.83 993.66 992.44 991.15 989.80 988.39 986.94 985.47 984.00 982.59 981.28 980.12
1014.89 1014.44 1013.97 1013.48 1012.98 1012.47 1011.95 1011.41 1010.85 1010.27 1009.65 1008.98 1008.25 1007.47 1006.63 1005.72 1004.76 1003.75 1002.71 1001.65 1000.58 999.51 998.44 997.39 996.33 995.28 994.20 993.08 991.91 990.67 989.36 987.98 986.55 985.08 983.62 982.19 980.86 979.68
1014.81 1014.37 1013.92 1013.45 1012.97 1012.47 1011.95 1011.40 1010.82 1010.20 1009.52 1008.79 1008.00 1007.14 1006.22 1005.24 1004.21 1003.15 1002.06 1000.97 999.88 998.81 997.76 996.73 995.72 994.70 993.67 992.60 991.48 990.30 989.04 987.71 986.33 984.90 983.46 982.06 980.75 979.57
1014.75 1014.32 1013.88 1013.42 1012.93 1012.42 1011.87 1011.29 1010.66 1009.98 1009.24 1008.44 1007.58 1006.65 1005.68 1004.65 1003.59 1002.50 1001.41 1000.32 999.25 998.21 997.19 996.20 995.23 994.26 993.27 992.26 991.19 990.06 988.86 987.59 986.26 984.89 983.51 982.17 980.90 979.75
1014.69 1014.26 1013.81 1013.34 1012.82 1012.27 1011.68 1011.03 1010.33 1009.58 1008.77 1007.90 1006.98 1006.01 1005.00 1003.96 1002.90 1001.83 1000.77 999.73 998.71 997.72 996.76 995.82 994.89 993.97 993.03 992.06 991.04 989.96 988.81 987.60 986.34 985.05 983.75 982.48 981.28 980.19
1014.60 1014.16 1013.69 1013.18 1012.62 1012.01 1011.35 1010.63 1009.85 1009.02 1008.14 1007.22 1006.25 1005.26 1004.24 1003.22 1002.19 1001.18 1000.18 999.21 998.27 997.35 996.46 995.58 994.71 993.83 992.94 992.01 991.03 989.99 988.91 987.77 986.58 985.37 984.16 982.98 981.86 980.85
Thickness
5499 5495 5490 5485 5480 5475 5470 5465 5463 5469 5475 5465 5454 5443 5431 5424 5417 5410 5406 5400 5393 5384 5376 5369 5361 5353 5347 5342 5339 5336 5334 5332 5332 5332 5334 5337 5342 5348
5486 5481 5476 5471 5466 5461 5456 5450 5444 5442 5448 5449 5435 5424 5413 5404 5395 5387 5380 5372 5362 5352 5343 5336 5330 5326 5323 5320 5317 5316 5314 5312 5311 5310 5310 5311 5314 5318
5475 5468 5462 5456 5451 5446 5440 5434 5428 5423 5426 5431 5417 5407 5395 5385 5376 5364 5352 5341 5333 5325 5320 5316 5314 5312 5310 5309 5308 5306 5305 5303 5300 5298 5297 5296 5297 5300
5462 5455 5449 5442 5435 5429 5424 5417 5412 5406 5403 5407 5402 5388 5376 5362 5352 5340 5328 5317 5312 5310 5307 5307 5306 5305 5305 5305 5304 5303 5301 5299 5296 5293 5290 5288 5288 5288
5449 5442 5435 5428 5421 5415 5408 5402 5396 5390 5382 5379 5379 5368 5356 5339 5328 5320 5310 5305 5302 5301 5300 5301 5301 5301 5302 5301 5301 5300 5299 5296 5293 5289 5286 5283 5281 5281
5437 5428 5421 5414 5407 5400 5394 5388 5380 5372 5363 5355 5351 5343 5331 5318 5307 5305 5303 5297 5295 5294 5295 5298 5299 5300 5299 5298 5297 5295 5293 5291 5288 5285 5281 5279 5277 5276
5425 5416 5409 5400 5392 5385 5377 5369 5359 5350 5340 5330 5322 5315 5308 5300 5295 5292 5291 5291 5291 5288 5294 5297 5296 5297 5297 5297 5296 5293 5290 5286 5282 5279 5277 5275 5275 5274
5412 5405 5398 5390 5381 5372 5361 5349 5335 5324 5314 5304 5298 5292 5289 5285 5284 5281 5281 5283 5289 5287 5288 5294 5291 5295 5296 5296 5295 5292 5287 5283 5280 5277 5276 5276 5276 5276
5400 5393 5386 5377 5366 5357 5345 5332 5318 5302 5290 5282 5279 5277 5277 5274 5273 5274 5275 5276 5280 5280 5280 5291 5291 5294 5294 5295 5294 5291 5287 5284 5281 5279 5279 5279 5280 5281
5388 5380 5371 5362 5349 5337 5328 5316 5301 5288 5278 5272 5268 5268 5266 5266 5265 5266 5267 5271 5276 5276 5275 5283 5289 5291 5294 5295 5295 5293 5291 5289 5287 5286 5286 5286 5287 5287
5377 5367 5356 5345 5332 5319 5309 5299 5289 5279 5270 5265 5263 5263 5262 5261 5259 5259 5261 5263 5271 5276 5273 5275 5282 5285 5289 5295 5299 5299 5297 5296 5295 5294 5294 5294 5293 5294
5366 5354 5341 5328 5313 5299 5289 5282 5277 5271 5266 5263 5262 5261 5260 5259 5256 5254 5253 5253 5258 5266 5272 5270 5271 5272 5285 5298 5299 5299 5300 5302 5302 5302 5302 5301 5300 5298
5349 5338 5325 5309 5295 5284 5275 5269 5265 5262 5261 5260 5259 5258 5257 5256 5254 5251 5247 5244 5247 5255 5261 5259 5262 5264 5267 5285 5298 5301 5303 5306 5307 5306 5306 5306 5305 5303
5330 5318 5305 5291 5280 5272 5266 5262 5258 5256 5255 5254 5252 5253 5252 5250 5248 5246 5244 5242 5242 5247 5253 5253 5256 5261 5267 5278 5291 5304 5306 5305 5307 5309 5309 5310 5310 5310
5311 5298 5286 5277 5270 5264 5260 5257 5255 5253 5250 5248 5247 5246 5244 5242 5242 5243 5245 5244 5245 5247 5252 5254 5257 5263 5268 5276 5288 5297 5303 5309 5310 5311 5311 5311 5314 5317
5296 5285 5275 5268 5262 5259 5257 5256 5253 5249 5246 5244 5242 5241 5239 5239 5239 5240 5242 5243 5246 5252 5254 5257 5260 5265 5273 5281 5287 5295 5299 5303 5310 5311 5312 5316 5321 5324
5282 5275 5270 5264 5259 5257 5255 5253 5250 5247 5244 5240 5238 5236 5236 5236 5236 5236 5237 5238 5241 5249 5257 5261 5265 5271 5276 5283 5292 5300 5305 5307 5307 5309 5313 5320 5327 5330
5271 5267 5263 5257 5254 5252 5250 5249 5247 5244 5241 5237 5235 5233 5233 5232 5233 5234 5234 5235 5239 5246 5253 5261 5269 5277 5286 5295 5299 5302 5305 5306 5308 5310 5313 5319 5329 5332
5263 5260 5255 5252 5249 5247 5245 5244 5244 5242 5238 5235 5233 5232 5230 5230 5230 5231 5233 5234 5239 5244 5252 5259 5267 5275 5283 5292 5302 5304 5302 5304 5308 5313 5317 5320 5326 5331
5256 5253 5251 5248 5246 5245 5243 5242 5241 5240 5237 5234 5232 5231 5229 5228 5229 5230 5232 5234 5239 5246 5254 5262 5268 5274 5278 5284 5293 5302 5305 5306 5308 5313 5319 5325 5332 5335
5252 5250 5248 5246 5245 5243 5242 5241 5239 5238 5236 5233 5232 5231 5230 5228 5229 5231 5233 5237 5242 5249 5256 5264 5271 5275 5280 5286 5294 5306 5312 5311 5309 5312 5317 5326 5334 5340
5249 5248 5247 5246 5244 5243 5242 5241 5240 5239 5237 5235 5233 5232 5231 5230 5231 5233 5236 5241 5246 5252 5259 5267 5274 5280 5286 5290 5296 5303 5311 5317 5319 5319 5320 5322 5327 5335
5247 5247 5246 5246 5245 5244 5243 5242 5241 5240 5239 5236 5235 5234 5233 5233 5235 5237 5242 5246 5251 5257 5263 5270 5277 5284 5289 5294 5299 5305 5311 5317 5322 5326 5329 5330 5333 5338